Regional Weather Roundup
Issued by NWS

Home | Current Version | Previous Version | Text Only | Print | Product List | Glossary Off
Versions: 1 2 3 4 5 6 7 8 9 10 11 12 13 14 15 16 17 18 19 20 21 22 23 24 25 26 27 28 29 30 31 32 33 34 35 36 37 38 39 40 41 42 43 44 45 46 47 48 49 50

000
ASUS43 KMKX 070320
RWRWI

WISCONSIN REGIONAL WEATHER ROUNDUP
NATIONAL WEATHER SERVICE MILWAUKEE/SULLIVAN WI
900 PM CST FRI MAR 06 2015

NOTE: "FAIR" INDICATES FEW OR NO CLOUDS BELOW 12,000 FEET WITH NO
SIGNIFICANT WEATHER AND/OR OBSTRUCTIONS TO VISIBILITY.

WIZ001-002-006>008-014>016-023>028-070400-
NORTHWEST WISCONSIN

CITY           SKY/WX    TMP DP  RH WIND       PRES   REMARKS
SUPERIOR ARPT  PTCLDY    25  11  55 SW3       29.98F
ASHLAND        CLEAR     23   8  52 S7        29.98S WCI  15
HAYWARD        PTCLDY    20  11  68 S5        29.99S WCI  13
SIREN          PTCLDY    27  15  59 W6        30.02S WCI  21
CUMBERLAND     PTCLDY    21  12  68 W7        30.01S WCI  13
RICE LAKE      PTCLDY    24  13  63 W5        30.03F WCI  18
CHETEK         PTCLDY    27  14  58 W5        30.02F WCI  22
LADYSMITH      PTCLDY    19  11  72 SW5       30.02S WCI  12
EAU CLAIRE     PTCLDY    23  13  65 W5        30.04S WCI  17
MENOMONIE      PTCLDY    28  15  59 SW6       30.05S WCI  21
NEW RICHMOND   CLEAR     24  14  67 W7        30.04F WCI  16
OSCEOLA        CLEAR     21  14  72 SW6       30.08S WCI  14
$$

WIZ003>005-009-010-017-018-070400-
NORTH CENTRAL WISCONSIN

CITY           SKY/WX    TMP DP  RH WIND       PRES   REMARKS
MANITOWISH WTR CLEAR      7   1  76 SW5       29.94S WCI  -1
ARBOR VITAE    CLEAR     21  10  62 CALM      29.95S
WOODRUFF       CLEAR     21  10  62 CALM      29.95S
RHINELANDER    CLEAR     16   7  67 SW5       29.96S WCI   9
EAGLE RIVER    CLEAR     10   3  74 SW6       29.94S WCI   0
LAND O LAKES   CLEAR      8   3  81 W3        29.94S
PHILLIPS       PTCLDY    19  10  70 SW3       29.97F
TOMAHAWK       CLEAR     20  10  66 CALM      29.98S
MEDFORD        PTCLDY    21  13  68 SW5       29.99S WCI  15
MERRILL        CLEAR     15   8  75 W3        30.00S
$$

WIZ029-030-035-036-043>047-070400-
CENTRAL WISCONSIN

CITY           SKY/WX    TMP DP  RH WIND       PRES   REMARKS
WAUSAU         PTCLDY    22  13  68 NW6       30.00S WCI  14
MOSINEE        NOT AVBL
MARSHFIELD     MOCLDY    24  14  65 W6        30.02S WCI  17
STEVENS POINT  PTCLDY    23  13  67 CALM      30.03S
WAUPACA        PTCLDY    26  15  63 SW3       30.05R
WAUTOMA        PTCLDY    23  15  71 CALM      30.06S
WISC RAPIDS    MOCLDY    27  15  61 SW5       30.05S WCI  22
CAMP DOUGLAS   MOCLDY    26  21  81 SW6       30.04F WCI  20
$$

WIZ011>013-019>022-031-037>040-048>050-070400-
NORTHEAST WISCONSIN

CITY           SKY/WX    TMP DP  RH WIND       PRES   REMARKS
ANTIGO         CLEAR     18  10  71 W7        29.98S WCI   9
SHAWANO        PTCLDY    28  14  54 W5        30.03S WCI  23
OCONTO         PTCLDY    15   9  78 SW5       30.03S WCI   8
STURGEON BAY   FAIR      21  12  68 SW8       30.05R WCI  12
GREEN BAY      PTCLDY    21  14  74 S5        30.05R WCI  15
MANITOWOC      PTCLDY    24  16  71 W10       30.06S WCI  14
APPLETON       PTCLDY    23  12  63 SW8       30.04S WCI  14
CLINTONVILLE   PTCLDY    18  10  73 CALM      30.04R
OSHKOSH        PTCLDY    24  15  68 SW9       30.06R WCI  14
$$

WIZ032>034-041-042-053>061-070400-
SOUTHWEST WISCONSIN

CITY           SKY/WX    TMP DP  RH WIND       PRES   REMARKS
LA CROSSE      CLEAR     28  20  71 S3        30.07S
SPARTA         PTCLDY    24  19  79 CALM      30.07S
VIROQUA        CLEAR     27  21  79 CALM      30.05S
BOSCOBEL       MOCLDY    26  18  71 CALM      30.09F
PRAIRIE DU CHI PTCLDY    29  22  73 CALM      30.09S
PLATTEVILLE    PTCLDY    27  20  77 S5        30.08F WCI  21
$$

WIZ056-057-062-063-064-067-068-070400-
SOUTH CENTRAL WISCONSIN

CITY           SKY/WX    TMP DP  RH WIND       PRES   REMARKS
REEDSBURG      MOCLDY    26  19  72 CALM      30.06S
BARABOO/DELLS  MOCLDY    27  19  69 CALM      30.06S
LONE ROCK      MOCLDY    18  13  80 NE5       30.09S WCI  11
MINERAL POINT  PTCLDY    28  21  74 S5        30.07S WCI  23
MADISON        MOCLDY    27  18  69 SW5       30.09F WCI  22
MIDDLETON      MOCLDY    28  18  68 SW5       30.09S WCI  22
WATERTOWN      PTCLDY    23  17  80 SW5       30.09S WCI  17
MONROE         PTCLDY    27  21  80 S12       30.08S WCI  16
JANESVILLE     MOCLDY    27  19  74 CALM      30.11F
$$

WIZ051-052-058>065-066-070>072-070400-
SOUTHEAST WISCONSIN

CITY           SKY/WX    TMP DP  RH WIND       PRES   REMARKS
MILWAUKEE      PTCLDY    23  15  71 SW9       30.12S WCI  13
WAUKESHA       CLEAR     25  18  74 SW8       30.11S WCI  16
MILWAUKEE/TIMM PTCLDY    23  16  74 SW7       30.11S WCI  15
RACINE         PTCLDY    24  16  71 SW8       30.14S WCI  15
BURLINGTON     PTCLDY    21  16  80 SW8       30.12S WCI  11
KENOSHA        PTCLDY    24  17  74 SW13      30.12S WCI  12
FOND DU LAC    PTCLDY    24  14  65 SW9       30.07R WCI  14
SHEBOYGAN      CLEAR     23  14  68 SW10      30.07S WCI  12
WEST BEND      PTCLDY    27  18  69 SW7       30.08S WCI  19
JUNEAU         CLEAR     20  15  80 SW7       30.09S WCI  11
$$

LSZ147-162-070400-
LAKE SUPERIOR

STATION/POSITION TIME  TEMP    WIND        PRES    WAVE
                       AIR SEA DIR/SP/G            HT/PER
                 (UTC) (F)     (DEG/KT/KT) (MB)    (FT/S)
DEVILS ISLAND    0300   29     240/ 12/ 13 1015.2F
PORT WING        0200   28     180/  6/  6 1015.6S
SAXON HARBOR     0200   23     200/  3/  6 1015.2F
$$

LMZ867-665-643>646-070400-
LAKE MICHIGAN

STATION/POSITION TIME  TEMP    WIND        PRES    WAVE
                       AIR SEA DIR/SP/G            HT/PER
                 (UTC) (F)     (DEG/KT/KT) (MB)    (FT/S)
NORTHPORT PIER   0301   25     230/  6/ 13 1016.3R
SISTER BAY       0213   26     240/ 13/ 16   N/A
KEWAUNEE LAKESHO 0300   24     250/  8/ 12 1016.6R
SHEBOYGAN LAKESH 0300   26     240/ 13/ 16 1019.9S
PORT WASHINGTON  0240   26     240/  6/  9 1020.0S
MILWAUKEE LAKESH 0300   26     230/ 11/ 14   N/A
KENOSHA   LAKESH 0300   26     230/ 11/ 15 1020.3S
$$

TC  - TEMPERATURE IN CELSIUS
VSB - VISIBILITY IN STATUTE MILES
WCI - WIND CHILL INDEX
HX  - HEAT INDEX



USA.gov is the U.S. government's official web portal to all federal, state and local government web resources and services.